This demonstration page uses our WeatherBlox Daily Observations layout. Learn more.

Left ArrowRight Arrow

47.50024, -111.30081

Hourly Observations for November 9, 2015

Temp ( °F °C ) Dew Point ( °F °C ) Humidity (%) Winds ( mph kmh ) Pressure ( in mb ) Visibility ( mi km ) Precip ( " mm )
2:53 am 02:53 undefined 45 7.2 23 -5 42 42 SSW 12 19 29.79 1009 10 16 0.00 0.00
3:53 am 03:53 Clear 44 6.7 24 -4.4 45 45 SSW 10 17 29.78 1009 10 16 0.00 0.00
4:53 am 04:53 Cloudy 43 6.1 25 -3.9 49 49 SW 10 17 29.82 1010 10 16 0.00 0.00
5:53 am 05:53 Cloudy 39 3.9 26 -3.3 60 60 NE 6 9 29.83 1010 10 16 0.00 0.00
6:53 am 06:53 Cloudy 34 1.1 28 -2.2 79 79 NNW 9 15 29.87 1012 10 16 0.00 0.00
7:53 am 07:53 Cloudy with Mist and Fog 32 0 29 -1.7 88 88 NW 12 19 29.91 1013 4 6 0.00 0.00
8:19 am 08:19 Cloudy with Mist and Fog 32 0 30 -1.1 92 92 NNW 9 15 29.94 1014 3 5 0.00 0.00
9:53 am 09:53 Cloudy with Mist and Fog 35 1.7 31 -0.6 85 85 NNW 8 13 29.89 1012 6 10 0.00 0.00
10:53 am 10:53 Cloudy 36 2.2 30 -1.1 79 79 NE 5 7 29.91 1013 8 13 0.00 0.00
11:53 am 11:53 Cloudy 36 2.2 31 -0.6 82 82 ENE 5 7 29.89 1012 8 13 0.00 0.00
12:53 pm 12:53 Cloudy 36 2.2 31 -0.6 82 82 N 6 9 29.89 1012 7 11 0.00 0.00
1:53 pm 13:53 Cloudy 36 2.2 31 -0.6 82 82 NNE 5 7 29.88 1012 7 11 0.00 0.00
2:53 pm 14:53 Cloudy with Mist and Fog 35 1.7 32 0 89 89 NE 5 7 29.87 1011 5 8 0.00 0.03
3:03 pm 15:03 Cloudy with Mist and Fog 36 2 32 0 87 87 NE 3 6 29.88 1012 5 8 0.00 0.00
3:53 pm 15:53 Cloudy with Light Snow 34 1.1 32 0 92 92 ESE 5 7 29.88 1012 3 4 0.00 0.03
4:05 pm 16:05 Cloudy with Light Snow 33 0.6 32 0 96 96 Calm 29.88 1012 2 3 0.01 0.25
4:18 pm 16:18 Cloudy with Mist and Fog 34 1 32 0 93 93 Calm 29.88 1012 2 3 0.00 0.00
4:53 pm 16:53 Cloudy with Light Wintry Mix 33 0.6 32 0 96 96 W 3 6 29.88 1012 2 3 0.01 0.25
5:08 pm 17:08 Cloudy with Light Snow 32 0 30 -1 93 93 W 5 7 29.91 1013 2 3 0.00 0.00
5:19 pm 17:19 Cloudy with Light Snow 32 0 31 -0.6 96 96 NW 6 9 29.91 1013 1 2 0.02 0.51
5:39 pm 17:39 Cloudy with Light Snow 32 0 31 -0.6 96 96 WNW 8 13 29.94 1014 2 2 0.03 0.76
5:53 pm 17:53 Cloudy with Light Snow 32 0 31 -0.6 96 96 WNW 8 13 29.91 1013 1 1 0.03 0.76
6:53 pm 18:53 Cloudy with Light Snow 31 -0.6 31 -0.6 100 100 NW 12 19 29.94 1014 1 1 0.02 0.51
7:14 pm 19:14 Cloudy with Light Snow 31 -0.6 30 -1.1 96 96 NNW 14 22 29.94 1014 2 2 0.01 0.25
7:37 pm 19:37 Cloudy with Light Snow 31 -0.6 30 -1.1 96 96 NW 14 22 29.94 1014 5 8 0.01 0.25
7:53 pm 19:53 Cloudy with Light Snow 30 -1.1 29 -1.7 96 96 NW 16 26 29.96 1015 3 5 0.01 0.25
7:59 pm 19:59 Cloudy with Light Snow 30 -1.1 29 -1.7 96 96 NNW 15 24 29.97 1015 2 3 0.00 0.03
8:09 pm 20:09 Cloudy with Light Snow 30 -1.1 29 -1.7 96 96 NNW 13 20 29.97 1015 2 3 0.01 0.25
8:24 pm 20:24 Cloudy with Light Snow 30 -1 28 -2 93 93 NW 15 24 29.97 1015 3 5 0.00 0.00
8:41 pm 20:41 Cloudy with Light Snow 30 -1.1 29 -1.7 96 96 NW 15 24 29.97 1015 3 4 0.01 0.25
8:53 pm 20:53 Cloudy with Light Snow 30 -1.1 28 -2.2 92 92 NW 14 22 29.97 1015 3 4 0.01 0.25
9:53 pm 21:53 Cloudy with Light Snow 29 -1.7 28 -2.2 96 96 NW 12 19 29.99 1016 3 4 0.01 0.25
10:33 pm 22:33 Cloudy with Light Snow 29 -1.7 28 -2.2 96 96 WNW 12 19 30.03 1017 2 3 0.01 0.25
10:53 pm 22:53 Cloudy with Light Snow 29 -1.7 28 -2.2 96 96 NW 14 22 29.99 1016 2 3 0.01 0.25
11:17 pm 23:17 Cloudy with Light Snow 29 -1.7 28 -2.2 96 96 NW 12 19 30.03 1017 2 3 0.01 0.25
11:37 pm 23:37 Cloudy with Light Snow 29 -1.7 28 -2.2 96 96 NW 12 19 30.03 1017 3 5 0.01 0.25
11:53 pm 23:53 Cloudy with Light Snow 29 -1.7 28 -2.2 96 96 NW 10 17 30.00 1016 5 8 0.01 0.25

Powered by AerisWeather